DW5656 Weather Reports


time (UTC)temp
C
wind
direction
speed
KPH
gust
KPH
rain 1hr
cm
rain 24hr
cm
rain mn
cm
humidity
%
barometer
mb
20260509182947 18 239 14.5 38.6 0.00 0.76 0.76 76 1011.9
20260509182047 18 249 14.5 38.6 0.00 0.76 0.76 71 1011.8
20260509181208 19 248 16.1 32.2 0.00 0.76 0.76 69 1011.6
20260509180247 19 244 16.1 32.2 0.00 0.76 0.76 68 1011.5
20260509175347 19 242 14.5 27.4 0.00 0.76 0.76 68 1011.5
20260509174448 19 230 14.5 32.2 0.00 0.76 0.76 69 1011.5
20260509173609 19 230 14.5 30.6 0.00 0.76 0.76 68 1011.4
20260509172647 19 232 14.5 35.4 0.00 0.76 0.76 70 1011.3
20260509171747 19 229 14.5 35.4 0.00 0.76 0.76 72 1011.2
20260509170847 19 241 17.7 30.6 0.00 0.76 0.76 73 1011.2
20260509165947 20 242 17.7 33.8 0.00 0.76 0.76 68 1011.1
20260509165047 20 249 17.7 35.4 0.00 0.76 0.76 65 1010.9
20260509164147 20 241 16.1 32.2 0.00 0.76 0.76 64 1010.8
20260509163247 20 239 16.1 33.8 0.00 0.76 0.76 65 1010.8
20260509162347 20 236 16.1 40.2 0.00 0.76 0.76 65 1010.7
20260509161447 20 239 14.5 29.0 0.00 0.76 0.76 63 1010.6
20260509160547 20 245 12.9 32.2 0.00 0.76 0.76 62 1010.6
20260509155708 21 243 16.1 33.8 0.00 0.76 0.76 62 1010.5
20260509154747 20 243 16.1 33.8 0.00 0.76 0.76 62 1010.5
20260509153908 20 246 17.7 37.0 0.00 0.76 0.76 64 1010.4
20260509152947 20 239 14.5 32.2 0.00 0.76 0.76 62 1010.4
20260509152047 21 248 19.3 33.8 0.00 0.76 0.76 62 1010.3
20260509151146 20 240 16.1 32.2 0.00 0.76 0.76 62 1010.4
20260509150308 21 240 16.1 37.0 0.00 0.76 0.76 61 1010.3
20260509145346 21 239 14.5 30.6 0.00 0.76 0.76 60 1010.2
20260509144447 21 254 17.7 32.2 0.00 0.76 0.76 60 1010.3
20260509143546 20 239 19.3 35.4 0.00 0.76 0.76 62 1010.2
20260509142646 20 239 16.1 43.5 0.00 0.76 0.76 60 1010.2
20260509141747 21 245 12.9 33.8 0.00 0.76 0.76 62 1010.1
20260509140846 20 237 12.9 30.6 0.00 0.76 0.76 64 1010.0
20260509140007 20 240 16.1 33.8 0.00 0.76 0.76 65 1010.0
20260509135046 20 240 17.7 38.6 0.00 0.76 0.76 65 1010.0
20260509134146 20 246 17.7 30.6 0.00 0.76 0.76 68 1009.9
20260509133246 20 243 16.1 35.4 0.00 0.76 0.76 68 1009.9
20260509132407 19 245 12.9 37.0 0.13 0.76 0.76 73 1009.7
20260509131507 18 240 6.4 29.0 0.15 0.76 0.76 77 1009.7
20260509130547 18 227 4.8 22.5 0.53 0.76 0.76 86 1009.6
20260509125646 17 224 3.2 19.3 0.61 0.76 0.76 88 1009.6
20260509124746 17 226 6.4 20.9 0.61 0.76 0.76 90 1009.8
20260509123846 16 223 9.7 35.4 0.61 0.76 0.76 89 1009.9
20260509122946 15 225 6.4 35.4 0.64 0.76 0.76 89 1009.9
20260509122046 15 229 9.7 20.9 0.53 0.64 0.64 88 1009.7
20260509121146 15 260 12.9 35.4 0.41 0.51 0.51 85 1009.7
20260509120246 17 263 6.4 43.5 0.05 0.15 0.18 82 1010.0
20260509115346 17 245 8.0 24.1 0.05 0.15 0.15 86 1009.3
20260509114446 16 251 12.9 27.4 0.05 0.15 0.15 85 1009.3
20260509113546 16 261 14.5 40.2 0.05 0.15 0.15 82 1009.2
20260509112646 18 229 11.3 40.2 0.00 0.10 0.10 78 1009.3
20260509111746 18 201 14.5 29.0 0.00 0.10 0.10 80 1008.5
20260509110846 18 202 16.1 35.4 0.00 0.10 0.10 79 1009.0
20260509105946 18 198 14.5 38.6 0.00 0.10 0.10 78 1009.0
20260509105046 18 196 12.9 37.0 0.00 0.10 0.10 76 1009.0
20260509104146 18 205 16.1 29.0 0.00 0.10 0.10 74 1009.0
20260509103246 19 202 14.5 48.3 0.00 0.10 0.10 73 1009.1
20260509102346 19 200 9.7 35.4 0.00 0.10 0.10 75 1009.0
20260509101446 19 213 11.3 27.4 0.03 0.10 0.10 76 1008.8
20260509100546 18 209 11.3 35.4 0.05 0.10 0.10 79 1008.8
20260509095646 18 202 9.7 35.4 0.05 0.10 0.10 81 1008.6
20260509094746 17 203 12.9 32.2 0.05 0.10 0.10 83 1008.6
20260509093907 17 210 12.9 32.2 0.05 0.10 0.10 84 1008.6
20260509093007 17 205 12.9 32.2 0.05 0.10 0.10 86 1008.7
20260509092046 17 209 12.9 30.6 0.05 0.10 0.10 84 1008.7
20260509091146 17 208 14.5 38.6 0.00 0.05 0.05 80 1008.8
20260509090245 18 202 16.1 38.6 0.00 0.05 0.05 75 1008.6
20260509085346 18 209 16.1 35.4 0.00 0.05 0.05 75 1008.4
20260509084445 18 208 14.5 45.1 0.03 0.05 0.05 75 1008.2
20260509083545 17 196 14.5 33.8 0.03 0.05 0.05 77 1008.3
20260509082646 17 199 14.5 37.0 0.03 0.05 0.05 77 1008.1
20260509081745 17 204 12.9 38.6 0.05 0.05 0.05 78 1008.1
20260509080845 17 194 12.9 29.0 0.05 0.05 0.05 77 1008.1
20260509075945 17 190 12.9 30.6 0.05 0.05 0.05 79 1008.2
20260509075045 17 194 11.3 33.8 0.05 0.05 0.05 79 1008.3
20260509074206 17 204 11.3 32.2 0.05 0.05 0.05 81 1008.2
20260509073245 16 196 9.7 33.8 0.05 0.05 0.05 82 1008.3
20260509072346 16 201 9.7 32.2 0.05 0.05 0.05 81 1008.3
20260509071445 16 200 9.7 30.6 0.03 0.03 0.03 82 1008.3
20260509070545 16 195 9.7 30.6 0.03 0.03 0.03 82 1008.2
20260509065645 16 194 9.7 25.7 0.00 0.00 0.00 81 1008.3
20260509064745 17 182 9.7 25.7 0.00 0.00 0.00 80 1008.0
20260509063846 17 191 8.0 27.4 0.00 0.00 0.00 81 1008.1
20260509062945 16 193 8.0 24.1 0.00 0.00 0.00 81 1008.1
20260509062107 16 191 8.0 25.7 0.00 0.00 0.00 81 1007.9
20260509061206 16 185 8.0 20.9 0.00 0.00 0.00 81 1007.8
20260509060245 16 183 8.0 22.5 0.00 0.00 0.00 81 1007.9
20260509055406 16 192 8.0 20.9 0.00 0.00 0.00 81 1007.9
20260509054445 17 188 6.4 24.1 0.00 0.00 0.00 80 1007.5
20260509053545 17 200 6.4 16.1 0.00 0.00 0.00 79 1007.7
20260509052645 17 203 4.8 16.1 0.00 0.00 0.00 77 1007.7
20260509051806 17 200 3.2 11.3 0.00 0.00 0.00 76 1007.8
20260509050845 17 208 1.6 8.0 0.00 0.00 0.00 75 1007.6
20260509050006 17 218 1.6 6.4 0.00 0.00 0.00 75 1007.4
20260509045045 17 188 1.6 4.8 0.00 0.00 0.00 74 1007.4
20260509044145 17 194 1.6 6.4 0.00 0.00 0.00 74 1007.4
20260509043245 17 198 0.0 6.4 0.00 0.00 0.00 73 1007.6
20260509042345 17 189 0.0 3.2 0.00 0.00 0.00 72 1007.7
20260509041445 17 144 0.0 3.2 0.00 0.00 0.00 72 1007.7
20260509040545 17 126 0.0 3.2 0.00 0.00 0.00 72 1007.7
20260509035645 17 119 0.0 1.6 0.00 0.00 0.00 71 1007.6
20260509034745 17 119 1.6 3.2 0.00 0.00 0.00 71 1007.6
20260509033845 17 131 1.6 8.0 0.00 0.00 0.00 71 1007.6
20260509032945 17 167 0.0 4.8 0.00 0.00 0.00 70 1007.7
20260509032045 17 169 1.6 3.2 0.00 0.00 0.00 70 1007.9
20260509031144 17 143 1.6 6.4 0.00 0.00 0.00 71 1007.7
20260509030244 17 165 1.6 8.0 0.00 0.00 0.00 71 1008.0
20260509025344 17 140 3.2 8.0 0.00 0.00 0.00 71 1008.0
20260509024444 17 156 1.6 11.3 0.00 0.00 0.00 71 1008.0
20260509023544 17 176 1.6 6.4 0.00 0.00 0.00 71 1008.1
20260509022644 17 177 1.6 8.0 0.00 0.00 0.00 71 1008.2
20260509021805 17 205 3.2 8.0 0.00 0.00 0.00 70 1008.2
20260509020844 17 183 3.2 11.3 0.00 0.00 0.00 70 1008.1
20260509015944 17 163 1.6 11.3 0.00 0.00 0.00 70 1008.1
20260509015044 17 168 3.2 8.0 0.00 0.00 0.00 70 1008.3
20260509014205 17 151 1.6 9.7 0.00 0.00 0.00 70 1008.2
20260509013244 17 169 0.0 3.2 0.00 0.00 0.00 70 1008.2
20260509012344 17 172 1.6 8.0 0.00 0.00 0.00 70 1008.4
20260509011444 17 194 1.6 4.8 0.00 0.00 0.00 70 1008.5
20260509010544 17 207 1.6 4.8 0.00 0.00 0.00 70 1008.7
20260509005644 17 166 1.6 8.0 0.00 0.00 0.00 70 1008.6
20260509004744 17 230 0.0 6.4 0.00 0.00 0.00 70 1008.7
20260509003845 17 247 1.6 6.4 0.00 0.00 0.00 71 1008.7
20260509002944 17 234 1.6 6.4 0.00 0.00 0.00 71 1008.9
20260509002044 17 198 1.6 4.8 0.00 0.00 0.00 71 1008.9
20260509001205 17 190 0.0 8.0 0.00 0.00 0.00 71 1009.1
20260509000244 17 186 0.0 4.8 0.00 0.00 0.00 71 1009.0
20260508235344 17 248 0.0 4.8 0.00 0.00 0.00 71 1009.2
20260508234444 17 268 1.6 4.8 0.00 0.00 0.00 70 1009.4
20260508233605 17 262 1.6 6.4 0.00 0.00 0.00 70 1009.6
20260508232644 17 236 1.6 6.4 0.00 0.00 0.00 70 1009.6
20260508231744 17 244 3.2 6.4 0.00 0.00 0.00 69 1009.7
20260508230844 17 234 1.6 8.0 0.00 0.00 0.00 69 1009.9
20260508225944 17 232 3.2 6.4 0.00 0.00 0.00 69 1009.8
20260508225044 17 252 3.2 6.4 0.00 0.00 0.00 68 1009.9
20260508224144 17 242 3.2 12.9 0.00 0.00 0.00 68 1009.9
20260508223244 17 232 3.2 6.4 0.00 0.00 0.00 68 1009.9
20260508222344 17 246 3.2 8.0 0.00 0.00 0.00 67 1010.0
20260508221444 17 270 4.8 14.5 0.00 0.00 0.00 67 1010.0
20260508220544 17 260 4.8 11.3 0.00 0.00 0.00 66 1009.9
20260508215644 17 264 4.8 11.3 0.00 0.00 0.00 66 1009.9
20260508214744 17 272 6.4 12.9 0.00 0.00 0.00 65 1009.9
20260508213844 18 270 8.0 16.1 0.00 0.00 0.00 65 1010.0
20260508212943 18 272 8.0 17.7 0.00 0.00 0.00 65 1010.0
20260508212044 18 273 6.4 16.1 0.00 0.00 0.00 64 1009.9
20260508211144 18 268 4.8 12.9 0.00 0.00 0.00 63 1009.7
20260508210244 18 259 4.8 11.3 0.00 0.00 0.00 63 1009.8
20260508205343 18 274 4.8 14.5 0.00 0.00 0.00 63 1009.7
20260508204443 18 260 6.4 16.1 0.00 0.00 0.00 61 1009.5
20260508203543 18 264 8.0 16.1 0.00 0.00 0.00 61 1009.5
20260508202643 18 249 9.7 17.7 0.00 0.00 0.00 60 1009.4
20260508201743 18 246 9.7 22.5 0.00 0.00 0.00 59 1009.3
20260508200843 18 245 11.3 22.5 0.00 0.00 0.00 57 1009.3
20260508195943 18 249 11.3 20.9 0.00 0.00 0.00 56 1009.1
20260508195044 19 257 11.3 20.9 0.00 0.00 0.00 55 1009.1
20260508194143 19 239 11.3 22.5 0.00 0.00 0.00 53 1009.0
20260508193243 20 243 11.3 24.1 0.00 0.00 0.00 52 1009.0
20260508192343 20 241 12.9 29.0 0.00 0.00 0.00 51 1008.8
20260508191444 20 243 12.9 25.7 0.00 0.00 0.00 52 1008.7
20260508190543 20 243 11.3 24.1 0.00 0.00 0.00 53 1008.6
20260508185643 21 243 11.3 24.1 0.00 0.00 0.00 54 1008.4
20260508184743 21 246 11.3 24.1 0.00 0.00 0.00 55 1008.4
20260508183844 21 247 11.3 20.9 0.00 0.00 0.00 54 1008.4